KT4FD Weather Reports


time (UTC)temp
C
wind
direction
speed
KPH
gust
KPH
rain 1hr
cm
rain 24hr
cm
rain mn
cm
humidity
%
barometer
mb
20260904041004 23 320 0.0 0.0 0.00 0.00 0.00 89 1018.4
20260904040003 23 320 0.0 0.0 0.00 0.00 0.00 89 1018.4
20260904035003 23 320 0.0 0.0 0.00 0.00 0.00 89 1018.5
20260904034003 23 320 0.0 0.0 0.00 0.00 0.00 89 1018.6
20260904033003 23 320 0.0 1.6 0.00 0.00 0.00 90 1018.6
20260904032003 23 320 0.0 3.2 0.00 0.00 0.00 90 1018.7
20260904021003 24 320 0.0 0.0 0.00 0.00 0.00 89 1018.4
20260904020003 24 320 0.0 1.6 0.00 0.00 0.00 89 1018.3
20260904015003 24 320 0.0 1.6 0.00 0.00 0.00 88 1018.3
20260904014004 25 320 0.0 9.7 0.00 0.00 0.00 88 1018.1
20260904013003 25 320 0.0 0.0 0.00 0.00 0.00 87 1017.9
20260904012003 25 320 0.0 0.0 0.00 0.00 0.00 87 1017.9
20260904011003 25 320 0.0 0.0 0.00 0.00 0.00 86 1017.7
20260903231003 32 320 0.0 0.0 0.00 0.00 0.00 67 1016.3
20260903230002 32 320 0.0 0.0 0.00 0.00 0.00 62 1016.4
20260903225002 33 320 0.0 0.0 0.00 0.00 0.00 61 1016.4
20260903224002 33 320 0.0 0.0 0.00 0.00 0.00 60 1016.4
20260903223002 33 324 0.0 0.0 0.00 0.00 0.00 60 1016.7
20260903222003 33 324 0.0 3.2 0.00 0.00 0.00 61 1016.6
20260903211002 33 324 0.0 4.8 0.00 0.00 0.00 58 1016.8
20260903210002 33 324 1.6 4.8 0.00 0.00 0.00 59 1016.9
20260903205002 33 324 3.2 8.0 0.00 0.00 0.00 57 1017.1
20260903204002 32 324 4.8 4.8 0.00 0.00 0.00 60 1017.1
20260903203002 32 324 0.0 3.2 0.00 0.00 0.00 60 1017.2
20260903202003 32 324 1.6 4.8 0.00 0.00 0.00 60 1017.3
20260903151003 30 30 0.0 0.0 0.00 0.00 0.00 71 1019.6
20260903140003 26 30 0.0 0.0 0.00 0.00 0.00 78 1019.6
20260903135002 25 30 0.0 0.0 0.00 0.00 0.00 88 1019.6
20260903134002 24 30 0.0 0.0 0.00 0.00 0.00 90 1019.8
20260903133002 23 30 0.0 0.0 0.00 0.00 0.00 90 1019.9
20260903132003 22 30 0.0 0.0 0.00 0.00 0.00 90 1019.9
20260903131003 22 30 0.0 0.0 0.00 0.00 0.00 90 1020.1
20260903130003 21 30 0.0 0.0 0.00 0.00 0.00 90 1020.1
20260903120002 20 30 0.0 0.0 0.00 0.00 0.00 91 1020.1
20260903115002 20 30 0.0 0.0 0.00 0.00 0.00 91 1019.8
20260903114003 20 30 0.0 0.0 0.00 0.00 0.00 91 1019.7
20260903113003 20 30 0.0 0.0 0.00 0.00 0.00 91 1019.7
20260903112003 20 30 0.0 0.0 0.00 0.00 0.00 91 1019.4
20260903111002 20 30 0.0 0.0 0.00 0.00 0.00 91 1019.2
20260903110002 20 30 0.0 0.0 0.00 0.00 0.00 91 1019.2
20260903105003 21 30 0.0 0.0 0.00 0.00 0.00 91 1019.2
20260903104003 21 30 0.0 0.0 0.00 0.00 0.00 91 1019.1
20260903103002 21 30 0.0 0.0 0.00 0.00 0.00 91 1019.0
20260903102002 21 30 0.0 0.0 0.00 0.00 0.00 91 1018.9
20260903101003 21 30 0.0 0.0 0.00 0.00 0.00 91 1018.8
20260903100002 21 30 0.0 0.0 0.00 0.00 0.00 91 1018.7
20260903075002 21 30 0.0 0.0 0.00 0.00 0.00 91 1018.9
20260903074002 21 30 0.0 0.0 0.00 0.00 0.00 91 1018.8
20260903073002 21 30 0.0 0.0 0.00 0.00 0.00 91 1018.9
20260903072003 21 30 0.0 0.0 0.00 0.00 0.00 91 1018.9
20260903071003 21 30 0.0 0.0 0.00 0.00 0.00 91 1018.9
20260903070002 21 30 0.0 0.0 0.00 0.00 0.00 91 1018.9
20260903045002 22 30 0.0 4.8 0.00 0.00 0.00 90 1019.3
20260903044003 22 30 0.0 0.0 0.00 0.00 0.00 90 1019.1
20260903043003 22 30 0.0 0.0 0.00 0.00 0.00 90 1019.1